Location: Clatteringshaws Loch
(55.0508°N, 4.2860°W)
Time: 09:43:45
(UTC+01:00)

ALOS - Visible Passes

Search period start: 25 October 2014 00:00
Search period end: 03 November 2014 23:00
Orbit: 687 x 690 km, 98.0° (Epoch: 24 October)

Date Brightness Start Highest point End Pass type
(mag) Time Alt. Az. Time Alt. Az. Time Alt. Az.
25 Oct 3.8 20:55:59 24° NNE 20:55:59 24° NNE 20:58:11 10° N visible
25 Oct 4.9 22:34:35 17° NW 22:34:35 17° NW 22:35:45 10° NNW visible
26 Oct 4.2 18:56:26 15° NE 18:56:26 15° NE 18:58:14 10° NNE visible
26 Oct 4.1 20:35:02 24° N 20:35:02 24° N 20:36:54 10° NNW visible
27 Oct 4.0 19:35:29 20° NNE 19:35:29 20° NNE 19:37:27 10° N visible
27 Oct 4.7 21:14:05 18° NNW 21:14:05 18° NNW 21:15:22 10° NNW visible
28 Oct 4.4 18:35:55 12° NE 18:35:55 12° NE 18:36:57 10° NNE visible
28 Oct 4.1 20:14:31 22° N 20:14:31 22° N 20:16:17 10° N visible
28 Oct 5.3 21:53:08 12° NW 21:53:08 12° NW 21:53:31 10° NNW visible
29 Oct 4.2 19:14:57 17° NNE 19:14:57 17° NNE 19:16:36 10° N visible
29 Oct 4.6 20:53:34 19° NNW 20:53:34 19° NNW 20:54:53 10° NNW visible
30 Oct 4.2 19:53:59 20° N 19:53:59 20° N 19:55:36 10° N visible
30 Oct 5.1 21:32:35 13° NNW 21:32:35 13° NNW 21:33:13 10° NNW visible
31 Oct 4.3 18:54:25 14° NNE 18:54:25 14° NNE 18:55:36 10° NNE visible
31 Oct 4.5 20:33:01 19° N 20:33:01 19° N 20:34:19 10° NNW visible
01 Nov 4.3 19:33:26 17° NNE 19:33:26 17° NNE 19:34:49 10° N visible
01 Nov 5.0 21:12:02 14° NNW 21:12:02 14° NNW 21:12:47 10° NNW visible
02 Nov 4.5 18:33:51 11° NNE 18:33:51 11° NNE 18:34:12 10° NNE visible
02 Nov 4.4 20:12:27 18° N 20:12:27 18° N 20:13:40 10° N visible
03 Nov 4.4 19:12:52 14° NNE 19:12:52 14° NNE 19:13:56 10° N visible
03 Nov 4.9 20:51:28 15° NNW 20:51:28 15° NNW 20:52:15 10° NNW visible
